Waarnemingen

Advertentie
Mijn weer
Bergamo/Orio al Serio, Italië (16076): temperatuur & dauwpunt: 15.10.2017 07:00:00 - 21.10.2017 07:00:00 (CEST)Bergamo/Orio al Serio, Italië (16076): windsnelheid: 15.10.2017 07:00:00 - 21.10.2017 07:00:00 (CEST)Bergamo/Orio al Serio, Italië (16076): windrichting: 15.10.2017 07:00:00 - 21.10.2017 07:00:00 (CEST)Bergamo/Orio al Serio, Italië (16076): luchtdruk: 15.10.2017 07:00:00 - 21.10.2017 07:00:00 (CEST)Bergamo/Orio al Serio, Italië (16076): zicht: 15.10.2017 07:00:00 - 21.10.2017 07:00:00 (CEST)
Datum & Tijd tt [°C] td [°C] ff [km/u] ff [kn] dd ppp [hPa] vv [km]
21.10.2017 07:00:00 - - - - - - -
21.10.2017 06:00:00 13,0 11,0 2 1 - - 1,6
21.10.2017 05:00:00 12,8 11,2 2 1 O 1021,3 1,6
21.10.2017 04:00:00 13,0 11,0 2 1 - - 1,6
21.10.2017 03:00:00 13,0 11,0 4 2 ZZW - 1,6
21.10.2017 02:00:00 12,8 11,2 5 3 ZZW 1021,9 1,6
21.10.2017 01:00:00 13,0 11,0 0 0 N - 1,6
21.10.2017 00:00:00 13,0 11,0 4 2 - - 1,6
20.10.2017 23:00:00 12,9 11,4 4 2 - 1022,3 1,6
20.10.2017 22:00:00 13,0 12,0 4 2 - - 1,6
20.10.2017 21:00:00 13,0 12,0 5 3 ZZW - 1,6
20.10.2017 20:00:00 12,9 11,5 5 3 Z 1021,3 1,6
20.10.2017 19:00:00 13,0 11,0 5 3 Z - 1,6
20.10.2017 18:00:00 14,0 12,0 9 5 ZZW - 2,0
20.10.2017 17:00:00 15,0 11,5 9 5 ZZW 1019,8 2,5
20.10.2017 16:00:00 16,0 11,0 5 3 Z - 2,5
20.10.2017 15:00:00 16,0 12,0 5 3 W - 2,5
20.10.2017 14:00:00 15,8 11,1 4 2 - 1020,1 2,5
20.10.2017 13:00:00 14,0 11,0 5 3 ZW - 2,5
20.10.2017 12:00:00 13,0 11,0 2 1 - - 2,5
20.10.2017 11:00:00 13,0 10,2 8 4 ZW 1021,6 2,5
20.10.2017 10:00:00 13,0 10,0 4 2 - - 2,5
20.10.2017 09:00:00 12,0 10,0 5 3 N - 2,5
20.10.2017 08:00:00 11,5 9,6 8 4 NNO 1020,3 2,5
20.10.2017 07:00:00 12,0 10,0 8 4 NNO - 2,0
20.10.2017 06:00:00 12,0 10,0 4 2 - - 2,0
20.10.2017 05:00:00 12,3 10,3 5 3 NNO 1020,2 2,0
20.10.2017 04:00:00 13,0 11,0 4 2 - - 1,5
20.10.2017 03:00:00 13,0 11,0 5 3 N - 1,5
20.10.2017 02:00:00 12,8 12,0 0 0 N 1019,9 1,0
20.10.2017 01:00:00 13,0 12,0 2 1 - - 1,0
20.10.2017 00:00:00 13,0 12,0 4 2 - - 1,2
19.10.2017 23:00:00 12,8 12,1 5 3 Z 1020,1 1,2
19.10.2017 22:00:00 12,0 12,0 4 2 - - 1,0
19.10.2017 21:00:00 13,0 11,0 4 2 - - 2,0
19.10.2017 20:00:00 13,0 11,3 5 3 OZO 1019,1 2,0
19.10.2017 19:00:00 14,0 12,0 4 2 - - 2,0
19.10.2017 18:00:00 15,0 12,0 5 3 - - 3,0
19.10.2017 17:00:00 16,1 12,0 4 2 - 1017,8 3,0
19.10.2017 16:00:00 16,0 12,0 5 3 ZZW - 2,5
19.10.2017 15:00:00 15,0 12,0 8 4 ZZW - 2,0
19.10.2017 14:00:00 15,5 12,5 11 6 ZW 1018,8 3,0
19.10.2017 13:00:00 16,0 11,0 8 4 ZZW - 3,5
19.10.2017 12:00:00 15,0 12,0 5 3 Z - 2,5
19.10.2017 11:00:00 14,9 11,2 2 1 - 1019,9 2,5
19.10.2017 10:00:00 13,0 10,0 2 1 - - 3,5
19.10.2017 09:00:00 11,0 8,0 5 3 NNO - 3,0
19.10.2017 08:00:00 9,5 7,1 2 1 N 1019,3 3,5
19.10.2017 07:00:00 10,0 8,0 5 3 NNO - 4,0
19.10.2017 06:00:00 10,0 8,0 5 3 NO - 4,0
19.10.2017 05:00:00 10,3 7,7 8 4 N 1019,3 4,0
19.10.2017 04:00:00 11,0 8,0 5 3 NNO - 4,0
19.10.2017 03:00:00 - - - - - - -
19.10.2017 02:00:00 11,3 8,7 8 4 N 1019,6 4,0
19.10.2017 01:00:00 12,0 9,0 8 4 NNO - 4,0
19.10.2017 00:00:00 12,0 9,0 8 4 NNO - 4,0
18.10.2017 23:00:00 11,9 8,9 8 4 NNO 1020,0 4,0
18.10.2017 22:00:00 13,0 10,0 11 6 NNO - 4,0
18.10.2017 21:00:00 14,0 10,0 9 5 NNO - 4,0
18.10.2017 20:00:00 14,4 10,6 8 4 NO 1018,8 4,0
18.10.2017 19:00:00 18,0 11,0 8 4 ZZW - 4,0
18.10.2017 18:00:00 19,0 11,0 8 4 Z - 5
18.10.2017 17:00:00 20,1 10,4 4 2 - 1017,4 5
18.10.2017 16:00:00 20,0 10,0 4 2 - - 5
18.10.2017 15:00:00 20,0 11,0 5 3 - - 5
18.10.2017 14:00:00 20,1 10,8 9 5 WZW 1018,9 5
18.10.2017 13:00:00 19,0 11,0 8 4 Z - 5
18.10.2017 12:00:00 18,0 11,0 5 3 Z - 5
18.10.2017 11:00:00 17,4 10,8 0 0 N 1020,5 6
18.10.2017 10:00:00 14,0 10,0 4 2 NNO - 7
18.10.2017 09:00:00 11,0 9,0 8 4 NNO - 7
18.10.2017 08:00:00 10,2 7,3 5 3 NNO 1021,2 7
18.10.2017 07:00:00 11,0 8,0 8 4 N - 7
18.10.2017 06:00:00 11,0 8,0 9 5 NNO - 7
18.10.2017 05:00:00 11,4 8,6 8 4 NNO 1021,6 7
18.10.2017 04:00:00 11,0 9,0 11 6 NNO - 7
18.10.2017 03:00:00 12,0 9,0 11 6 NNO - 7
18.10.2017 02:00:00 12,1 9,4 9 5 NNO 1022,7 7
18.10.2017 01:00:00 13,0 10,0 11 6 NNO - 7
18.10.2017 00:00:00 13,0 10,0 9 5 N - 7
17.10.2017 23:00:00 13,2 10,2 9 5 NNO 1023,6 7
17.10.2017 22:00:00 14,0 11,0 11 6 NNO - 6
17.10.2017 21:00:00 15,0 11,0 9 5 NNO - 5
17.10.2017 20:00:00 16,8 12,1 9 5 ONO 1023,3 5
17.10.2017 19:00:00 18,0 11,0 8 4 ZZO - 5
17.10.2017 18:00:00 21,0 11,0 8 4 Z - 7
17.10.2017 17:00:00 21,7 10,1 0 0 N 1022,6 7
17.10.2017 16:00:00 22,0 11,0 4 2 - - 5
17.10.2017 15:00:00 22,0 11,0 5 3 Z - 5
17.10.2017 14:00:00 21,3 11,5 5 3 ZW 1024,6 5
17.10.2017 13:00:00 21,0 12,0 8 4 - - 5
17.10.2017 12:00:00 21,0 12,0 5 3 ZZO - 8
17.10.2017 11:00:00 19,6 12,0 0 0 N 1026,2 8
17.10.2017 10:00:00 15,0 11,0 8 4 NNO - 8
17.10.2017 09:00:00 12,0 9,0 8 4 NNO - 8
17.10.2017 08:00:00 11,9 8,4 9 5 N 1026,6 8
17.10.2017 07:00:00 12,0 9,0 9 5 NNO - 10
17.10.2017 06:00:00 13,0 9,0 9 5 NNO - 10
17.10.2017 05:00:00 12,6 9,3 9 5 NNO 1026,8 10
17.10.2017 04:00:00 12,0 10,0 8 4 NNO - 10
17.10.2017 03:00:00 13,0 10,0 9 5 NNO - 10
17.10.2017 02:00:00 13,2 10,0 9 5 NNO 1027,4 10
17.10.2017 01:00:00 14,0 11,0 9 5 N - 10
17.10.2017 00:00:00 14,0 11,0 11 6 NNO - 10
16.10.2017 23:00:00 14,5 10,9 9 5 N 1027,6 10
16.10.2017 22:00:00 15,0 12,0 11 6 N - 10
16.10.2017 21:00:00 16,0 12,0 11 6 N - 5
16.10.2017 20:00:00 16,9 13,2 9 5 N 1026,9 4,0
16.10.2017 19:00:00 19,0 13,0 0 0 N - 4,0
16.10.2017 18:00:00 22,0 13,0 5 3 Z - 5
16.10.2017 17:00:00 22,9 13,2 4 2 - 1025,9 5
16.10.2017 16:00:00 23,0 14,0 9 5 Z - 5
16.10.2017 15:00:00 23,0 13,0 8 4 W - 8
16.10.2017 14:00:00 23,2 13,0 5 3 - 1026,9 10
16.10.2017 13:00:00 22,0 11,0 9 5 W - 10
16.10.2017 12:00:00 21,0 11,0 8 4 - - 10
16.10.2017 11:00:00 19,5 11,1 4 2 - 1028,3 10
16.10.2017 10:00:00 16,0 11,0 4 2 - - 10
16.10.2017 09:00:00 14,0 11,0 8 4 NNO - 10
16.10.2017 08:00:00 12,1 9,6 9 5 N 1028,5 10
16.10.2017 07:00:00 12,0 10,0 9 5 N - 9
16.10.2017 06:00:00 12,0 10,0 8 4 NNO - 8
16.10.2017 05:00:00 11,8 10,0 8 4 NNO 1028,5 8
16.10.2017 04:00:00 13,0 11,0 11 6 NNO - 8
16.10.2017 03:00:00 13,0 11,0 9 5 NNO - 8
16.10.2017 02:00:00 13,1 10,9 11 6 NNO 1028,8 8
16.10.2017 01:00:00 13,0 11,0 9 5 NNO - 8
16.10.2017 00:00:00 14,0 11,0 9 5 N - 8
15.10.2017 23:00:00 14,2 11,6 11 6 NO 1028,6 8
15.10.2017 22:00:00 14,0 12,0 8 4 NNO - 8
15.10.2017 21:00:00 15,0 12,0 9 5 NNO - 7
15.10.2017 20:00:00 17,2 12,8 8 4 N 1027,7 7
15.10.2017 19:00:00 20,0 13,0 0 0 N - 7
15.10.2017 18:00:00 23,0 12,0 5 3 ZW - 7
15.10.2017 17:00:00 22,8 13,3 4 2 - 1026,6 7
15.10.2017 16:00:00 24,0 13,0 4 2 - - 7
15.10.2017 15:00:00 23,0 12,0 5 3 W - 7
15.10.2017 14:00:00 22,2 13,0 9 5 ZZW 1027,9 7
15.10.2017 13:00:00 21,0 12,0 8 4 ZW - 10
15.10.2017 12:00:00 20,0 11,0 8 4 W - 10
15.10.2017 11:00:00 19,6 11,3 2 1 - 1029,2 8
15.10.2017 10:00:00 16,0 11,0 4 2 - - 8
15.10.2017 09:00:00 13,0 10,0 8 4 NNO - 8
15.10.2017 08:00:00 11,6 9,2 8 4 N 1029,6 8
15.10.2017 07:00:00 12,0 10,0 5 3 NNO - 7

tt = temperatuur
td = dauwpunt
ff = windsnelheid
dd = windrichting
ppp = luchtdruk
vv = zicht

Weerstations in de omgeving